This is the latest recevied weather packets stored in our database for station/object CT1ETE-13. If no packets are shown the sender has not sent any weather packets the latest 10 day(s).
| Time | Temp. | Humidity | Pressure | Rain* | Wind** | Luminosity | Snow |
|---|---|---|---|---|---|---|---|
| 1777600853 | 12.78° C | 86% | 1018.3 hPa | 0 mm | - | - | - |
| 1777599952 | 12.78° C | 85% | 1018.6 hPa | 0 mm | - | - | - |
| 1777599053 | 12.22° C | 85% | 1018.8 hPa | 0 mm | - | - | - |
| 1777598152 | 12.78° C | 85% | 1019 hPa | 0 mm | - | - | - |
| 1777597253 | 12.78° C | 85% | 1019.1 hPa | 0 mm | - | - | - |
| 1777596351 | 12.22° C | 85% | 1019.3 hPa | 0 mm | - | - | - |
| 1777595510 | 12.22° C | 86% | 1019.3 hPa | 0 mm | - | - | - |
| 1777594548 | 12.78° C | 86% | 1019.2 hPa | 0 mm | - | - | - |
| 1777593647 | 12.22° C | 86% | 1019.2 hPa | 0 mm | - | - | - |
| 1777592748 | 12.78° C | 85% | 1019.2 hPa | 0 mm | - | - | - |
| 1777591847 | 12.78° C | 85% | 1019.2 hPa | 0 mm | - | - | - |
| 1777590946 | 12.78° C | 85% | 1019.1 hPa | 0 mm | - | - | - |
| 1777590109 | 12.78° C | 86% | 1019.1 hPa | 0 mm | - | - | - |
| 1777589144 | 12.78° C | 86% | 1018.9 hPa | 0 mm | - | - | - |
| 1777588245 | 12.78° C | 85% | 1019 hPa | 0 mm | - | - | - |
| 1777587343 | 12.78° C | 85% | 1019 hPa | 0 mm | - | - | - |
| 1777586445 | 12.78° C | 85% | 1019.1 hPa | 0 mm | - | - | - |
| 1777585541 | 13.33° C | 85% | 1019.1 hPa | 0 mm | - | - | - |
| 1777584699 | 13.33° C | 85% | 1019.1 hPa | 0 mm | - | - | - |
| 1777583737 | 13.33° C | 85% | 1019 hPa | 0 mm | - | - | - |
| 1777582831 | 13.33° C | 85% | 1018.9 hPa | 0 mm | - | - | - |
| 1777581931 | 13.33° C | 84% | 1018.9 hPa | 0 mm | - | - | - |
| 1777581032 | 13.89° C | 84% | 1018.9 hPa | 0 mm | - | - | - |
| 1777580132 | 13.89° C | 83% | 1018.6 hPa | 0 mm | - | - | - |
| 1777579231 | 14.44° C | 82% | 1018.3 hPa | 0 mm | - | - | - |
* Rain latest hour (hover to see other rain measurements)
** Current wind speed in m/s (hover to see current wind gust speed)